Regional Weather Roundup
Issued by NWS Boston, MA

Home | Current Version | Previous Version | Text Only | Print | Product List | Glossary On
Versions: 1 2 3 4 5 6 7 8 9 10 11 12 13 14 15 16 17 18 19 20 21 22 23 24 25 26 27 28 29 30 31 32 33 34 35 36 37 38 39 40 41 42 43 44 45 46 47 48 49 50
000
ASUS41 KBOX 260210
RWRBOX

REGIONAL WEATHER ROUNDUP
NATIONAL WEATHER SERVICE TAUNTON MA
900 PM EST SUN JAN 25 2015

NOTE:  "FAIR" INDICATES FEW OR NO CLOUDS BELOW 12,000 FEET WITH NO
SIGNIFICANT WEATHER AND/OR OBSTRUCTIONS TO VISIBILITY.  THE FOLLOWING
OBSERVATION LOCATIONS DO NOT REPORT PRESENT WEATHER...PROVINCETOWN...
SMITHFIELD...BLOCK ISLAND...KEENE...AND OXFORD.

MAZALL-260300-
EASTERN MASSACHUSETTS

CITY           SKY/WX    TMP DP  RH WIND       PRES   REMARKS
BOSTON         PTCLDY    25   7  46 NW8       29.96R WCI  16
BEVERLY        PTCLDY    23   4  44 NW9       29.95R WCI  13
LAWRENCE       PTCLDY    21   4  47 NW10      29.97R WCI  10
BEDFORD        PTCLDY    22   4  46 NW8       29.95R WCI  12
BLUE HILL        N/A     21   9  59 NW12      29.90R WCI   9
NORWOOD        PTCLDY    25   8  48 VRB5      29.96R WCI  19
MARSHFIELD     CLEAR     28  12  50 NW7       29.96R WCI  21
PLYMOUTH       CLEAR     26  11  52 NW5       29.93R WCI  20
TAUNTON        FAIR      27   8  44 NW9       29.93R WCI  18
NEW BEDFORD    CLEAR     26   9  48 W3        29.93R
$$

MAZALL-260300-
CAPE COD AND THE ISLANDS

CITY           SKY/WX    TMP DP  RH WIND       PRES   REMARKS
FALMOUTH       MOCLDY    27   9  46 NW7       29.92R WCI  19
HYANNIS        CLEAR     30  11  45 NW9       29.90R WCI  22
CHATHAM        CLEAR     30  12  47 NW7       29.90F WCI  23
PROVINCETOWN   CLEAR     30  10  43 NW21G26   29.94R WCI  17
NANTUCKET      PTCLDY    32  12  43 NW14      29.92R WCI  22
MARTHAS VNYRD  PTCLDY    29   8  41 NW12      29.92R WCI  19
$$

MAZALL-260300-
CENTRAL AND WESTERN MASSACHUSETTS

CITY           SKY/WX    TMP DP  RH WIND       PRES   REMARKS
WORCESTER      PTCLDY    17   3  54 NW6       29.90R WCI   9
FITCHBURG      PTCLDY    21   4  47 NW7       29.96R WCI  12
ORANGE         PTCLDY    18   3  52 W3        29.95R
SPRINGFIELD    PTCLDY    18   2  50 N6        29.96R WCI  10
WESTFIELD      PTCLDY    19   2  47 NW7       29.97R WCI  10
NORTH ADAMS    PTCLDY    15   3  59 W5        29.98R WCI   8
PITTSFIELD     PTCLDY    14   2  58 N5        29.91R WCI   6
$$

RIZALL-260300-
RHODE ISLAND

CITY           SKY/WX    TMP DP  RH WIND       PRES   REMARKS
PROVIDENCE     FAIR      25   7  46 W7        29.95R WCI  17
NEWPORT        PTCLDY    27   7  42 NW12G22   29.93R WCI  17
BLOCK ISLAND   PTCLDY    30   7  37 N13G18    29.93R WCI  20
SMITHFIELD     CLEAR     21   3  45 NW10      29.91S WCI  10
WESTERLY       PTCLDY    28   6  39 N10       29.97R WCI  19
$$

CTZALL-260300-
CONNECTICUT

CITY           SKY/WX    TMP DP  RH WIND       PRES   REMARKS
BRADLEY INTL   PTCLDY    21   1  41 NW9       29.98R WCI  11
HARTFORD       PTCLDY    23   0  36 NW7       30.00R WCI  15
BRIDGEPORT     PTCLDY    29  11  47 N6        29.98R WCI  23
DANBURY        PTCLDY    24   4  42 NE7       29.97R WCI  16
GROTON         PTCLDY    27   7  42 N12       29.97R WCI  17
NEW HAVEN      PTCLDY    28   9  44 N8        29.97R WCI  20
CHESTER        FAIR      28   9  43 N6        29.96R WCI  22
MERIDEN        CLEAR     25   5  42 N8        29.98R WCI  16
WILLIMANTIC    PTCLDY    24   1  36 NW5       29.96R WCI  18
OXFORD         PTCLDY    21   1  42 N9        29.94R WCI  11
$$

MEZ002-015-021-024-NHZ003-005-008-011-012-014-VTZ005-008-260300-
NORTHERN NEW ENGLAND

CITY           SKY/WX    TMP DP  RH WIND       PRES   REMARKS
PORTLAND ME    CLEAR     16  -1  47 NW9       29.95R WCI   4
BANGOR ME      CLEAR      8  -6  52 W5        29.89R WCI   0
CONCORD NH     PTCLDY    16   0  49 NW14      29.98R WCI   2
MANCHESTER NH  MOCLDY    18   3  52 N9        29.96R WCI   7
NASHUA NH        N/A     21   3  45 NW10      29.97R WCI  10
PORTSMOUTH NH  MOCLDY    18   0  44 NW15G22   29.95R WCI   4
JAFFREY NH     PTCLDY    17   1  49 VRB6      29.90R WCI   9
KEENE NH       MOCLDY    18   1  49 N8        29.95R WCI   7
BURLINGTON VT  CLEAR      5  -4  66 E5        30.07R WCI  -4
MT. WASHINGTON PTCLDY   -15 -22  70 NW66        N/A  WCI -56
$$

NYZ052-076-260300-
EASTERN NEW YORK

CITY           SKY/WX    TMP DP  RH WIND       PRES   REMARKS
ALBANY         MOCLDY    16   1  51 NW6       30.02R WCI   7
NEW YORK CITY  CLOUDY    33  12  41 N14       29.96R WCI  23
$$

ANZALL-260300-
MARINE OBSERVATIONS

STATION/POSITION TIME  TEMP    WIND        PRES    VSBY  WAVE
                       AIR SEA DIR/SP/G                  HT/PER
                 (UTC) (F)     (DEG/KT/KT) (MB)    (MI)  (FT/S)
BOSTON BUOY      0150   28 41  320/ 19/ 23 1014.1R
BUZZARDS BAY     0100          320/ 19/ 22 1013.2R
NANTUCKET SOUND  0150   32 37  320/ 17/ 21 1012.5R         2/ 3
MASS BAY-STELLWA 0104   28 42  300/ 19/ 23   N/A    1 7/8  3/ 3
ISLE OF SHOALS   0200   21     300/ 25/ 28 1012.8R
S OF BLOCK IS    0108      45                N/A           8/11
$$

......................KEY.........................
  SKY/WX - SKY CONDITION/PRESENT WEATHER
  TMP    - TEMPERATURE IN FAHRENHEIT
  DWPT   - DEWPOINT IN FAHRENHEIT
  RH     - RELATIVE HUMIDITY IN PERCENT
  WIND   - DIRECTION AND SPEED IN MPH
  PRES   - MEAN SEA LEVEL PRESSURE IN INCHES OF HG
  WCI    - WIND CHILL INDEX
  VSB    - VISIBILITY IN MILES
  HX     - HEAT INDEX
  TC     - TEMPERATURE IN CELSIUS
  VRB    - VARIABLE WIND DIRECTION
  N/A    - NOT AVAILABLE



USA.gov is the U.S. government's official web portal to all federal, state and local government web resources and services.